Terminal Aerodrome Forecast
Issued by NWS Lake Charles, LA

Home | Current Version | Previous Version | Text Only | Print | Product List | Glossary On
Versions: 1 2 3 4 5 6 7 8 9 10 11 12 13 14 15 16 17 18 19 20 21 22
898
FTUS44 KLCH 280250 AAB
TAFLCH
TAF AMD
KLCH 280250Z 2803/2824 19005KT 5SM BR BKN017 BKN021 OVC028
     FM280600 VRB04KT 4SM BR OVC009
     FM281500 15008KT P6SM BKN015
      TEMPO 2816/2818 SCT025 BKN045
     FM281800 15011KT P6SM BKN045=

USA.gov is the U.S. government's official web portal to all federal, state and local government web resources and services.